Location: Mococo
(38.0255°N, 122.1161°W)
Time: 19:29:02
(UTC+00:00)

Cosmos 2263 Rocket - Pass Details

Date: 13 February 2026
Orbit: 821 x 848 km, 71.0° (Epoch: 10 March)

Event Time Altitude Azimuth Distance (km) Brightness Sun altitude
Exits shadow 13:43:15 -1° 335° (NNW) 3,479 5.1 -15.8°
Rises 13:43:26 0° 335° (NNW) 3,411 5.1 -15.8°
Reaches altitude 10° 13:45:54 10° 333° (NNW) 2,469 4.3 -15.3°
Maximum altitude 13:51:32 72° 250° (WSW) 882 2.1 -14.2°
Drops below altitude 10° 13:57:06 10° 167° (SSE) 2,437 4.8 -13.1°
Sets 13:59:31 0° 166° (SSE) 3,363 5.6 -12.6°
